Weather reports worldwide

Advertisment
Ajaccio, France (7761): temperature & dewpoint: 14.10.2020 16:00:00 - 20.10.2020 16:00:00 (CEST)Ajaccio, France (7761): temperature 5cm: 14.10.2020 16:00:00 - 20.10.2020 16:00:00 (CEST)Ajaccio, France (7761): temperature -20cm & temperature -100cm: 14.10.2020 16:00:00 - 20.10.2020 16:00:00 (CEST)Ajaccio, France (7761): wind speed & gusts: 14.10.2020 16:00:00 - 20.10.2020 16:00:00 (CEST)Ajaccio, France (7761): wind direction: 14.10.2020 16:00:00 - 20.10.2020 16:00:00 (CEST)Ajaccio, France (7761): reduced air pressure: 14.10.2020 16:00:00 - 20.10.2020 16:00:00 (CEST)Ajaccio, France (7761): visibility: 14.10.2020 16:00:00 - 20.10.2020 16:00:00 (CEST)Ajaccio, France (7761): sunshine duration: 14.10.2020 16:00:00 - 20.10.2020 16:00:00 (CEST)Ajaccio, France (7761): precipitation: 14.10.2020 16:00:00 - 20.10.2020 16:00:00 (CEST)
Date & Time tt [°C] td [°C] tt 5cm [°C] tt -20cm [°C] tt -100cm [°C] ff [km/h] ff [kn] fx [km/h] fx [kn] dd ppp [hPa] vv [km] sd [min] rr [mm]
20.10.2020 16:00:00 22,1 11,5 21,4 16,8 19,9 10 5 22 12 SW 1022,7 57 60 0,0
20.10.2020 15:00:00 21,3 12,7 21,9 16,6 19,9 16 9 27 15 WSW 1022,8 60 60 0,0
20.10.2020 14:00:00 21,1 10,3 23,9 16,5 19,9 13 7 23 13 WSW 1023,0 42 60 0,0
20.10.2020 13:00:00 21,0 10,2 25,3 16,5 19,9 10 6 16 8 WSW 1023,5 44 60 0,0
20.10.2020 12:00:00 20,4 8,7 24,5 16,5 20,0 6 4 13 7 NNE 1024,1 44 60 0,0
20.10.2020 11:00:00 18,6 9,4 20,5 16,6 19,9 8 5 14 8 NNE 1024,2 37 60 0,0
20.10.2020 10:00:00 14,7 8,4 13,3 16,7 19,9 11 6 20 11 NNE 1024,5 32 60 0,0
20.10.2020 09:00:00 10,7 6,3 7,6 16,8 20,0 15 8 26 14 NNE 1024,5 33 50 0,0
20.10.2020 08:00:00 8,3 5,0 7,0 16,9 20,0 15 8 22 12 NNE 1023,9 55 0 0,0
20.10.2020 07:00:00 9,1 5,1 7,7 17,0 20,0 14 8 24 13 NNE 1023,6 60 0 0,0
20.10.2020 06:00:00 8,6 5,7 7,0 17,1 20,0 14 8 24 13 NNE 1024,1 60 0 0,0
20.10.2020 05:00:00 8,9 6,0 7,6 17,2 20,0 13 7 23 12 NNE 1023,9 60 0 0,0
20.10.2020 04:00:00 8,8 6,4 7,8 17,3 20,0 15 8 21 12 NE 1023,6 54 0 0,0
20.10.2020 03:00:00 9,6 7,2 8,5 17,4 20,0 14 8 22 12 NNE 1024,2 48 0 0,0
20.10.2020 02:00:00 9,9 8,0 8,6 17,5 20,0 13 7 21 11 NNE 1024,4 43 0 0,0
20.10.2020 01:00:00 10,2 8,5 9,3 17,6 20,0 12 7 17 9 NE 1024,5 28 0 0,0
20.10.2020 00:00:00 10,3 8,7 9,2 17,6 20,0 8 5 12 7 NE 1024,3 23 0 0,0
19.10.2020 23:00:00 11,1 9,4 10,0 17,7 20,0 8 4 18 10 NE 1024,3 20 0 0,0
19.10.2020 22:00:00 11,3 9,4 10,0 17,7 20,1 10 5 16 9 ENE 1024,2 13 0 0,0
19.10.2020 21:00:00 12,7 10,1 11,5 17,7 20,0 10 5 16 9 NE 1024,3 16 0 0,0
19.10.2020 20:00:00 14,1 10,7 10,6 17,5 20,0 9 5 13 7 NE 1024,2 26 0 0,0
19.10.2020 19:00:00 16,0 10,1 12,0 17,4 20,0 4 2 9 5 S 1023,7 2,2 19 0,0
19.10.2020 18:00:00 17,6 10,0 15,4 17,3 20,1 6 3 14 8 SW 1023,4 60 53 0,0
19.10.2020 17:00:00 18,9 10,7 17,8 17,1 20,0 8 5 14 7 SW 1023,5 42 60 0,0
19.10.2020 16:00:00 19,0 11,3 18,8 16,9 20,1 8 4 14 8 WSW 1023,7 33 60 0,0
19.10.2020 15:00:00 18,7 11,0 20,2 16,8 20,1 11 6 19 10 W 1024,0 60 60 0,0
19.10.2020 14:00:00 18,8 11,8 23,6 16,6 20,1 11 6 18 10 WSW 1024,2 57 60 0,0
19.10.2020 13:00:00 18,9 10,7 25,5 16,6 20,1 9 5 23 12 SW 1024,6 43 60 0,0
19.10.2020 12:00:00 18,2 11,5 23,9 16,6 20,1 6 4 16 8 W 1024,7 30 60 0,0
19.10.2020 11:00:00 17,3 10,9 19,6 16,7 20,1 4 2 12 7 N 1024,5 37 60 0,0
19.10.2020 10:00:00 14,0 10,2 14,0 16,8 20,1 7 4 19 10 NNE 1024,3 31 60 0,0
19.10.2020 09:00:00 10,9 8,3 8,6 16,9 20,1 13 7 19 10 NNE 1024,0 29 51 0,0
19.10.2020 08:00:00 9,4 7,5 8,4 17,0 20,1 15 8 20 11 NNE 1023,2 40 0 0,0
19.10.2020 07:00:00 10,0 8,1 8,7 17,0 20,1 13 7 21 12 NNE 1023,3 45 0 0,0
19.10.2020 06:00:00 10,2 8,3 9,2 17,1 20,1 16 9 21 12 NNE 1023,2 43 0 0,0
19.10.2020 05:00:00 9,8 8,2 8,5 17,2 20,1 13 7 21 11 NNE 1023,2 37 0 0,0
19.10.2020 04:00:00 9,5 7,9 8,6 17,3 20,2 12 6 18 10 NE 1023,2 33 0 0,0
19.10.2020 03:00:00 9,9 8,3 9,0 17,4 20,1 14 8 21 11 NNE 1022,8 33 0 0,0
19.10.2020 02:00:00 10,1 8,7 9,0 17,5 20,2 11 6 19 10 NE 1022,9 13 0 0,0
19.10.2020 01:00:00 10,6 9,0 9,7 17,5 20,2 11 6 18 10 NE 1022,9 27 0 0,0
19.10.2020 00:00:00 10,8 9,4 9,6 17,6 20,2 12 6 17 9 NE 1022,8 20 0 0,0
18.10.2020 23:00:00 11,4 9,6 10,3 17,7 20,2 9 5 16 8 NE 1022,6 19 0 0,0
18.10.2020 22:00:00 12,2 9,9 11,1 17,6 20,2 11 6 18 10 NNE 1022,2 22 0 0,0
18.10.2020 21:00:00 13,2 10,7 11,9 17,6 20,2 11 6 16 9 NNE 1021,9 24 0 0,0
18.10.2020 20:00:00 14,3 11,1 12,6 17,5 20,2 8 4 12 6 ENE 1021,6 29 0 0,0
18.10.2020 19:00:00 16,5 11,2 14,3 17,3 20,2 5 3 11 6 ENE 1021,1 45 12 0,0
18.10.2020 18:00:00 18,3 11,4 16,9 17,2 20,2 8 4 22 12 W 1020,7 54 60 0,0
18.10.2020 17:00:00 19,6 12,1 19,5 17,0 20,2 14 7 23 13 SW 1020,5 43 60 0,0
18.10.2020 16:00:00 19,4 12,4 19,9 16,8 20,2 17 9 30 16 SW 1020,4 20 60 0,0
18.10.2020 15:00:00 19,4 12,2 21,2 16,6 20,2 17 9 29 16 SW 1020,3 41 60 0,0
18.10.2020 14:00:00 19,2 11,5 24,6 16,5 20,2 14 8 21 12 SW 1020,5 42 60 0,0
18.10.2020 13:00:00 18,9 11,2 26,4 16,4 20,3 11 6 18 10 SW 1020,8 43 60 0,0
18.10.2020 12:00:00 18,3 10,4 24,6 16,4 20,3 7 4 12 7 WSW 1020,9 45 60 0,0
18.10.2020 11:00:00 17,4 11,0 20,2 16,5 20,3 4 2 13 7 ENE 1020,7 47 60 0,0
18.10.2020 10:00:00 14,6 9,8 15,2 16,5 20,3 9 5 16 9 NNE 1020,4 42 60 0,0
18.10.2020 09:00:00 11,2 8,9 8,9 16,6 20,3 12 7 20 11 NNE 1020,0 34 51 0,0
18.10.2020 08:00:00 9,7 8,1 8,5 16,7 20,4 11 6 21 11 NNE 1019,2 46 0 0,0
18.10.2020 07:00:00 10,0 8,3 8,8 16,8 20,4 9 5 18 10 NE 1019,0 46 0 0,0
18.10.2020 06:00:00 10,7 8,5 9,6 16,8 20,4 13 7 23 12 NNE 1018,9 56 0 0,0
18.10.2020 05:00:00 10,3 8,2 9,1 16,9 20,4 11 6 19 11 NNE 1019,0 58 0 0,0
18.10.2020 04:00:00 9,9 8,2 9,2 17,0 20,4 14 7 23 12 NNE 1019,0 48 0 0,0
18.10.2020 03:00:00 10,2 8,5 9,4 17,0 20,4 14 8 21 12 NE 1019,0 46 0 0,0
18.10.2020 02:00:00 10,7 9,0 9,5 17,0 20,4 11 6 18 10 NNE 1018,9 47 0 0,0
18.10.2020 01:00:00 11,1 9,4 10,0 17,1 20,4 10 6 19 10 NE 1018,9 37 0 0,0
18.10.2020 00:00:00 11,9 9,8 10,9 17,1 20,4 11 6 18 10 NNE 1019,0 41 0 0,0
17.10.2020 23:00:00 12,2 9,9 11,3 17,1 20,4 10 6 17 9 NNE 1018,9 39 0 0,0
17.10.2020 22:00:00 12,4 10,3 11,6 17,1 20,4 6 3 17 9 NE 1018,6 41 0 0,0
17.10.2020 21:00:00 12,6 10,5 11,4 17,1 20,5 10 5 16 9 NNE 1018,2 34 0 0,0
17.10.2020 20:00:00 13,3 10,7 12,3 17,0 20,5 8 4 15 8 NE 1017,8 36 0 0,0
17.10.2020 19:00:00 14,1 11,3 13,3 16,9 20,5 6 4 15 8 NNE 1017,2 42 0 0,0
17.10.2020 18:00:00 14,7 11,1 14,5 16,8 20,5 7 4 18 10 NNE 1016,8 36 0 0,0
17.10.2020 17:00:00 15,2 10,6 15,2 16,7 20,5 11 6 19 10 E 1016,7 46 0 0,0
17.10.2020 16:00:00 15,6 9,7 14,1 16,6 20,5 5 3 30 16 SSE 1016,6 50 0 0,0
17.10.2020 15:00:00 16,6 10,4 17,7 16,5 20,5 6 4 15 8 SSW 1016,6 58 44 0,0
17.10.2020 14:00:00 17,0 12,5 16,0 16,5 20,5 5 3 14 8 E 1016,5 58 35 0,0
17.10.2020 13:00:00 14,7 12,2 13,3 16,5 20,5 4 2 9 5 ENE 1016,9 43 0 0,4
17.10.2020 12:00:00 14,4 11,0 14,6 16,6 20,6 2 1 6 4 N 1016,9 44 0 0,0
17.10.2020 11:00:00 14,1 11,3 14,4 16,6 20,6 3 2 10 5 S 1016,4 17 0 0,0
17.10.2020 10:00:00 12,8 10,2 13,3 16,6 20,6 6 3 9 5 NE 1015,9 57 0 0,0
17.10.2020 09:00:00 11,5 9,4 10,2 16,7 20,6 3 2 13 7 N 1015,2 45 19 0,0
17.10.2020 08:00:00 10,7 8,5 9,1 16,8 20,6 8 4 16 9 NNE 1014,6 59 0 0,0
17.10.2020 07:00:00 10,1 8,5 9,4 16,9 20,6 13 7 19 11 NNE 1014,2 59 0 0,0
17.10.2020 06:00:00 9,7 8,1 8,4 16,9 20,6 12 7 20 11 NNE 1014,5 58 0 0,0
17.10.2020 05:00:00 9,3 7,9 8,4 17,0 20,6 10 5 17 9 NE 1014,3 48 0 0,0
17.10.2020 04:00:00 9,7 8,3 8,8 17,1 20,6 13 7 21 11 NNE 1014,3 53 0 0,0
17.10.2020 03:00:00 10,0 8,6 9,1 17,1 20,6 7 4 16 9 NE 1014,7 45 0 0,0
17.10.2020 02:00:00 10,4 9,0 9,4 17,2 20,6 9 5 18 10 NNE 1014,5 46 0 0,0
17.10.2020 01:00:00 11,0 9,7 9,9 17,2 20,7 9 5 18 10 NNE 1014,6 26 0 0,0
17.10.2020 00:00:00 11,1 9,7 10,0 17,3 20,7 9 5 15 8 NE 1014,5 17 0 0,0
16.10.2020 23:00:00 11,5 10,4 10,3 17,3 20,7 10 5 14 8 NE 1014,5 14 0 0,0
16.10.2020 22:00:00 12,3 10,9 10,2 17,3 20,7 9 5 17 9 NE 1014,3 25 0 0,0
16.10.2020 21:00:00 13,5 11,2 11,5 17,2 20,7 8 4 12 6 NE 1014,0 34 0 0,0
16.10.2020 20:00:00 13,8 11,1 11,9 17,2 20,7 6 4 11 6 ENE 1013,5 4,5 0 0,0
16.10.2020 19:00:00 15,4 10,8 13,8 17,1 20,7 7 4 20 11 WNW 1012,6 32 4 0,0
16.10.2020 18:00:00 16,4 10,7 15,6 16,9 20,7 16 8 27 15 SW 1012,0 31 40 0,0
16.10.2020 17:00:00 16,3 11,0 15,4 16,8 20,7 16 9 27 14 WSW 1011,7 34 45 0,0
16.10.2020 16:00:00 18,1 10,7 18,0 16,8 20,8 9 5 19 10 SSW 1011,3 19 60 0,0
16.10.2020 15:00:00 16,5 10,1 13,8 16,7 20,8 11 6 24 13 ESE 1011,5 32 25 0,2
16.10.2020 14:00:00 15,4 9,7 12,9 16,7 20,8 11 6 23 12 E 1012,0 32 2 0,2
16.10.2020 13:00:00 15,0 10,4 14,2 16,7 20,8 14 7 29 16 ENE 1012,5 18 15 0,0
16.10.2020 12:00:00 14,4 12,1 12,5 16,7 20,8 16 9 29 16 E 1012,6 19 23 0,2
16.10.2020 11:00:00 12,8 10,7 11,6 16,8 20,8 10 5 21 11 E 1012,4 17 2 1,8
16.10.2020 10:00:00 12,5 10,4 10,5 16,8 20,8 9 5 17 9 E 1012,2 34 4 1,0
16.10.2020 09:00:00 11,2 9,3 9,6 16,9 20,8 10 5 22 12 NE 1011,9 48 0 0,0
16.10.2020 08:00:00 10,5 9,3 9,6 16,9 20,8 8 5 20 11 NNE 1011,8 36 0 0,0
16.10.2020 07:00:00 10,7 9,5 9,6 17,0 20,9 13 7 20 11 NNE 1011,7 38 0 0,0
16.10.2020 06:00:00 10,7 9,6 9,7 17,0 20,9 10 5 18 10 NE 1011,9 24 0 0,2
16.10.2020 05:00:00 10,9 9,8 10,1 17,1 20,9 11 6 18 10 ENE 1011,8 26 0 0,0
16.10.2020 04:00:00 10,9 9,5 9,9 17,1 20,9 6 3 18 10 ENE 1011,8 5 0 0,4
16.10.2020 03:00:00 10,9 9,7 9,9 17,1 20,9 12 6 21 12 NE 1012,1 33 0 0,0
16.10.2020 02:00:00 11,0 9,6 9,9 17,2 20,9 15 8 24 13 ENE 1012,2 32 0 0,4
16.10.2020 01:00:00 11,2 9,8 10,0 17,2 20,9 11 6 19 10 NE 1012,0 9 0 0,0
16.10.2020 00:00:00 11,3 9,9 10,4 17,2 20,9 10 6 18 10 NE 1011,9 22 0 0,0
15.10.2020 23:00:00 11,3 9,9 10,5 17,3 21,0 8 4 17 9 ENE 1011,7 22 0 0,2
15.10.2020 22:00:00 11,5 10,1 10,6 17,2 20,9 10 5 18 10 NE 1011,3 22 0 0,0
15.10.2020 21:00:00 11,8 10,0 10,8 17,2 21,0 9 5 15 8 E 1010,8 28 0 0,0
15.10.2020 20:00:00 11,9 10,5 10,7 17,2 21,0 9 5 15 8 NE 1010,7 20 0 0,0
15.10.2020 19:00:00 12,5 10,6 11,0 17,1 21,0 4 2 21 11 N 1010,2 42 4 0,0
15.10.2020 18:00:00 13,1 10,5 11,8 17,0 21,0 6 3 16 9 ENE 1009,7 60 0 0,2
15.10.2020 17:00:00 13,5 9,9 12,5 17,0 21,0 9 5 19 10 NE 1009,2 60 0 0,0
15.10.2020 16:00:00 14,3 9,9 14,0 16,9 21,0 11 6 19 11 E 1008,8 54 11 0,0
15.10.2020 15:00:00 13,6 9,4 12,9 16,9 21,0 6 3 14 7 SE 1008,6 58 6 0,2
15.10.2020 14:00:00 13,4 9,8 12,6 16,9 21,1 10 5 18 10 NW 1008,4 58 0 0,0
15.10.2020 13:00:00 13,3 9,2 12,2 16,9 21,1 5 3 16 8 ESE 1007,7 58 0 0,0
15.10.2020 12:00:00 12,0 10,2 11,9 17,0 21,1 4 2 14 8 ENE 1007,6 20 0 0,0
15.10.2020 11:00:00 11,5 10,6 10,4 17,0 21,1 10 5 25 14 NNE 1006,8 23 0 1,9
15.10.2020 10:00:00 11,2 10,3 10,3 17,2 21,2 6 3 29 16 E 1007,2 9 0 3,4
15.10.2020 09:00:00 11,9 10,6 9,8 17,3 21,2 30 16 48 26 SW 1006,3 2,2 0 1,6
15.10.2020 08:00:00 10,3 9,7 9,5 17,4 21,2 12 6 20 11 NE 1004,9 42 0 0,0
15.10.2020 07:00:00 10,4 9,8 9,4 17,4 21,2 10 5 16 9 NNE 1005,4 47 0 0,0
15.10.2020 06:00:00 10,9 10,4 9,7 17,5 21,3 9 5 17 9 NE 1005,3 33 0 0,0
15.10.2020 05:00:00 11,3 10,7 10,0 17,5 21,2 8 4 16 8 NE 1005,1 24 0 0,0
15.10.2020 04:00:00 11,8 11,2 11,0 17,5 21,3 10 5 16 8 NE 1005,5 18 0 0,0
15.10.2020 03:00:00 12,2 11,6 10,9 17,5 21,3 5 3 10 5 NE 1005,8 20 0 0,0
15.10.2020 02:00:00 12,5 11,9 11,1 17,6 21,3 6 4 11 6 NE 1005,4 23 0 0,0
15.10.2020 01:00:00 12,7 11,9 11,1 17,6 21,3 2 1 8 4 ENE 1005,4 59 0 0,0
15.10.2020 00:00:00 12,8 12,0 11,8 17,7 21,3 5 3 10 5 ENE 1005,1 34 0 0,4
14.10.2020 23:00:00 12,9 12,0 11,9 17,7 21,3 5 3 13 7 E 1005,1 39 0 0,0
14.10.2020 22:00:00 13,1 11,8 12,2 17,7 21,3 4 2 15 8 ENE 1005,0 19 0 2,0
14.10.2020 21:00:00 13,3 12,4 12,4 17,8 21,4 8 4 18 10 NE 1004,6 3,8 0 5,3
14.10.2020 20:00:00 13,9 12,3 12,8 17,8 21,3 5 3 14 8 NNE 1005,4 4,5 0 3,4
14.10.2020 19:00:00 14,5 12,4 13,4 17,8 21,4 10 5 14 8 NE 1005,0 11 0 0,0
14.10.2020 18:00:00 15,1 12,2 14,0 17,7 21,4 4 2 11 6 NNE 1005,2 60 0 0,0
14.10.2020 17:00:00 15,1 13,0 13,3 17,7 21,4 8 4 22 12 NNE 1005,6 57 2 0,0
14.10.2020 16:00:00 14,0 12,6 12,9 17,7 21,4 12 6 21 12 ENE 1006,5 12 0 1,4

tt = temperature
td = dewpoint
tt 5cm = temperature 5cm
tt -20cm = temperature -20cm
tt -100cm = temperature -100cm
ff = wind speed
fx = gusts
dd = wind direction
ppp = reduced air pressure
vv = visibility
sd = sunshine duration
rr = precipitation

Next stations